Theta_e
313 314 316 316 317 318 319 319 319 319 319 318 318 317 317 317 316 315 314 313 312 311 311 310 310 309 307 307 306 305 304 303 302 303 303 302 302 302 302 302 302 301 301
307 307 306 306 307 308 308 308 308 309 308 308 308 308 307 307 306 306 306 306 306 306 305 304 305 304 304 303 303 303 303 302 301 301 301 301 300 300 300 300 300 300 299
301 301 301 301 301 300 300 301 302 302 302 302 302 302 302 301 301 301 301 301 300 300 300 301 301 301 301 301 301 301 301 301 300 300 299 299 299 299 299 298 298 298 298
299 299 298 298 298 297 297 297 298 298 298 297 297 297 297 296 296 296 296 296 296 296 296 296 296 296 297 297 297 298 298 298 298 298 298 298 297 297 298 297 296 296 296
296 295 293 293 293 294 293 293 293 293 292 292 293 292 292 292 292 291 291 292 293 293 294 294 294 294 294 293 293 293 294 294 295 296 296 296 296 296 296 295 294 294 294
292 290 289 289 289 289 289 289 289 289 289 289 289 289 289 289 289 289 289 288 288 289 289 289 290 290 291 291 291 291 291 291 291 292 292 293 293 294 294 294 294 294 294
288 287 287 287 288 288 288 288 288 288 287 287 287 288 288 288 287 288 288 288 288 288 288 289 289 289 289 289 289 289 289 289 289 290 291 291 291 291 291 291 292 293 293
286 286 286 286 286 286 286 286 286 286 286 286 286 286 286 287 286 287 287 287 287 288 288 288 288 288 288 288 288 288 287 287 288 288 288 288 288 288 289 289 289 290 291
284 283 283 284 284 284 285 285 285 285 285 285 285 286 286 286 286 286 286 287 287 287 287 287 287 287 287 287 287 287 287 287 287 287 287 287 287 288 288 289 290 290 290
282 282 282 283 283 284 284 284 283 283 284 285 285 284 284 284 285 285 286 286 286 286 286 286 286 286 286 287 287 287 287 287 287 287 287 287 287 288 288 288 288 289 289
280 281 281 282 282 282 282 283 284 284 284 284 283 283 282 282 282 283 285 285 285 285 285 285 285 286 286 286 286 286 287 287 288 288 286 285 286 286 288 289 288 288 288
280 280 281 281 283 284 284 283 281 281 281 280 280 279 279 279 279 281 282 282 282 282 282 283 283 284 285 286 286 286 287 287 287 286 286 285 285 286 287 288 288 288 287
280 282 284 283 282 282 281 280 280 279 278 277 277 277 277 277 277 278 279 280 280 281 281 282 283 284 285 285 285 285 286 287 287 286 286 285 285 285 285 285 285 286 286
284 281 280 279 279 278 278 277 277 276 275 275 275 275 275 276 276 277 279 279 280 280 281 281 282 284 284 285 285 286 287 287 287 286 286 285 285 285 284 285 285 286 286
279 278 277 277 276 275 275 275 274 274 275 275 275 275 275 276 277 279 279 279 279 280 281 282 283 284 284 284 285 286 287 287 287 286 285 284 284 284 285 285 286 286 284
277 275 275 275 274 274 273 274 274 274 274 275 275 276 276 277 277 277 278 278 278 279 280 283 283 283 284 283 285 286 286 286 286 285 284 284 284 284 285 285 284 283 283
275 274 274 273 272 272 272 271 271 273 274 273 273 274 275 274 275 275 276 275 274 274 272 272 273 274 274 276 279 285 285 284 284 284 284 284 284 284 284 284 283 282 282
273 273 273 272 272 271 270 270 270 269 270 271 272 272 272 272 273 273 273 272 270 270 269 269 269 270 271 273 273 275 278 283 284 284 284 284 283 283 283 283 282 281 281
271 271 271 271 270 270 269 269 269 269 269 269 269 270 270 270 270 271 269 268 267 267 267 267 267 267 268 269 270 271 273 275 278 284 284 283 283 283 283 283 282 282 281
271 271 270 270 269 268 268 268 268 268 268 268 268 268 270 269 268 267 267 267 266 266 266 266 266 267 267 267 268 269 270 271 273 275 277 282 283 283 282 282 282 282 281
269 268 268 268 267 267 267 268 267 267 267 267 267 267 270 268 267 266 265 266 265 265 265 265 265 266 266 267 267 268 269 270 270 271 273 275 279 282 282 282 282 281 281
267 267 267 268 268 267 267 267 267 266 266 266 266 267 267 266 265 266 266 266 266 265 265 265 265 265 266 266 266 266 268 269 270 270 271 273 275 278 281 282 281 281 281
267 267 267 267 266 266 266 266 266 266 265 266 265 265 265 265 265 265 265 265 265 264 264 264 265 265 266 266 266 266 266 267 268 269 269 271 272 274 276 279 281 281 280
266 266 266 266 265 265 265 265 265 265 265 265 265 265 264 264 264 263 263 263 263 263 263 263 263 263 263 264 265 266 267 268 268 269 269 269 270 271 273 274 276 278 280
266 265 265 265 265 265 265 265 265 265 264 264 263 263 263 263 263 263 263 263 263 263 263 263 263 263 263 263 263 263 264 267 268 268 269 269 269 270 270 271 272 274 276
265 265 265 265 265 264 264 264 264 263 263 263 263 263 262 263 263 263 263 263 263 263 263 263 263 263 263 263 263 263 263 264 265 267 268 268 267 268 269 269 270 271 272
Wind_Speed
9 9 9 7 6 6 7 6 5 5 5 5 6 5 6 7 8 9 10 11 13 15 16 19 21 22 23 23 24 25 28 29 24 32 30 30 32 34 36 36 37 36 37
11 13 15 13 11 10 9 8 6 5 4 3 2 2 1 1 3 5 6 7 9 12 14 16 19 19 22 23 24 25 29 28 29 34 30 33 32 32 37 38 38 36 37
16 18 17 16 15 14 13 12 10 9 9 8 6 6 5 5 5 5 7 8 9 11 12 13 16 17 21 22 23 25 26 27 29 31 36 32 33 30 33 35 37 38 39
17 20 21 18 18 17 16 15 15 13 13 12 12 11 11 10 10 10 10 10 11 13 14 15 16 16 19 21 23 25 27 28 27 29 32 32 29 29 31 34 35 32 38
20 21 20 19 18 17 16 15 14 12 12 11 10 10 11 12 13 14 15 15 16 18 19 20 21 22 23 23 22 26 26 25 24 25 29 32 30 27 27 29 31 32 35
20 21 18 17 16 16 14 13 12 12 12 11 12 13 14 14 14 15 17 18 19 20 23 24 23 24 25 24 24 22 22 24 25 25 29 28 34 28 29 30 32 29 16
21 19 17 15 16 15 14 13 13 13 12 12 14 15 16 17 19 20 21 20 22 23 24 26 28 27 26 25 22 20 21 21 23 28 31 32 35 32 31 31 31 30 31
19 18 15 14 15 14 13 13 12 12 13 15 17 17 19 21 21 20 21 23 24 24 24 24 24 24 21 20 24 26 25 25 25 29 31 38 37 39 36 36 39 38 38
17 15 14 13 13 12 13 13 13 14 16 18 20 21 21 21 22 22 24 26 28 26 23 21 19 20 21 21 24 28 29 28 27 28 31 36 40 42 42 37 35 30 27
14 13 12 11 12 12 13 12 14 16 17 18 19 20 21 22 22 23 21 23 21 21 21 22 22 22 23 24 26 29 31 33 34 34 32 32 34 39 38 35 35 28 28
13 11 11 11 11 13 13 14 15 15 15 17 19 20 18 16 18 18 18 21 22 24 24 24 24 25 29 30 31 33 34 37 36 31 32 33 31 30 31 31 33 32 28
13 12 12 12 12 12 11 11 12 15 17 19 20 20 19 19 19 17 18 18 22 27 28 29 30 31 35 34 33 32 32 32 32 30 29 30 29 29 28 27 30 32 34
11 11 8 6 7 8 9 10 14 15 15 16 17 17 19 22 23 20 22 24 25 28 30 33 34 34 33 34 31 31 33 31 27 25 25 29 29 30 32 32 31 30 32
7 6 6 6 7 8 8 9 11 12 12 14 17 17 18 20 23 28 31 33 33 33 34 36 35 34 31 30 33 30 27 28 25 23 27 29 29 28 28 28 28 25 23
9 7 5 4 6 6 7 8 8 8 10 14 15 16 18 19 23 24 26 29 30 30 35 32 29 27 29 29 29 28 27 26 25 27 26 27 26 26 25 27 21 21 15
10 6 5 4 5 6 7 7 4 6 9 8 9 12 15 15 20 23 25 25 26 25 26 21 22 23 24 27 30 27 25 25 28 27 25 24 24 23 21 21 19 16 14
8 6 5 4 2 4 6 9 12 13 13 10 12 13 13 17 19 21 21 22 19 22 22 22 21 23 26 27 30 25 24 26 29 25 24 23 22 21 19 19 18 15 12
6 6 5 3 2 3 6 8 11 13 18 21 18 16 16 19 22 21 21 21 26 25 24 22 22 23 25 26 29 31 31 29 25 24 22 22 21 20 19 17 16 15 12
6 4 2 3 2 3 4 5 7 11 14 17 19 18 20 20 22 20 20 25 24 24 24 25 27 27 27 28 29 30 30 30 30 26 21 22 20 18 18 16 15 13 12
6 5 3 3 3 1 2 5 7 9 10 13 16 18 20 21 23 23 22 22 23 23 23 24 27 27 27 27 28 28 29 30 30 30 28 23 21 19 18 17 15 15 15
7 6 4 4 2 2 4 6 5 6 9 11 14 15 14 17 17 17 18 20 22 23 23 23 25 25 26 27 28 28 26 27 30 31 31 29 25 20 19 17 15 14 14
8 6 3 2 2 2 5 5 5 7 8 11 14 15 13 15 16 17 18 19 19 20 21 21 22 23 24 25 25 26 27 26 29 33 33 30 27 25 21 18 15 14 12
7 5 2 0 2 4 5 5 7 9 11 13 14 15 15 17 17 18 19 20 21 21 21 21 22 24 24 25 23 23 24 26 27 33 32 28 27 25 24 19 17 14 12
6 4 3 3 4 7 8 9 11 11 13 16 17 18 18 19 19 19 19 20 21 22 21 22 21 22 24 24 24 23 22 20 24 27 30 26 25 25 23 22 18 15 11
7 5 5 5 7 9 11 12 14 14 16 18 19 19 19 19 20 20 21 21 22 22 23 23 22 22 23 23 24 24 24 21 20 23 28 26 24 23 22 20 19 16 11
7 5 6 8 11 13 14 15 17 17 19 20 20 20 21 22 22 23 23 24 25 25 25 26 25 24 24 24 24 24 23 23 20 22 25 25 23 23 22 21 19 16 13
Wind_Direction
111 117 135 156 173 164 161 164 165 175 181 188 198 212 236 250 258 260 264 271 275 279 281 284 285 287 284 285 284 280 271 264 267 284 284 285 284 283 286 287 288 290 292
118 117 109 111 116 115 111 113 119 116 116 112 101 92 39 337 320 313 296 281 282 283 286 287 286 289 287 288 285 277 270 268 266 281 288 290 289 291 292 291 289 288 290
115 117 111 105 104 97 95 97 100 96 91 84 75 66 48 20 356 336 319 316 308 300 293 288 290 292 291 291 289 284 279 277 274 271 284 288 289 290 287 289 284 284 286
119 111 105 102 100 97 92 88 85 79 76 70 62 54 44 33 16 359 348 339 328 321 317 312 306 300 291 291 291 289 290 287 281 278 281 289 289 293 287 290 287 282 284
117 108 101 102 100 96 89 80 75 68 59 54 51 42 28 13 357 342 333 329 324 318 313 311 310 308 307 305 288 284 283 284 283 282 284 289 291 293 290 295 283 288 280
120 107 105 101 97 90 86 77 70 58 49 35 32 22 14 5 350 338 332 326 322 317 314 314 314 313 312 308 302 292 282 283 283 283 284 284 287 288 293 290 290 290 290
116 110 104 100 91 84 78 69 59 45 33 25 21 12 5 -0 355 347 339 332 328 327 326 324 322 320 317 309 305 301 296 290 283 284 283 282 288 291 296 294 288 285 282
113 108 103 97 89 82 72 58 43 32 20 13 15 8 3 3 356 348 342 336 332 329 327 324 320 317 314 313 311 307 304 301 294 291 283 286 287 290 287 284 284 281 281
112 104 95 87 83 72 58 44 33 21 16 9 11 6 2 0 358 354 349 341 336 332 331 326 322 314 314 311 306 304 303 299 297 296 291 291 290 289 287 286 284 284 283
113 104 93 82 74 61 46 34 24 17 11 5 6 7 7 1 359 353 349 343 335 330 324 320 317 314 313 311 307 304 299 301 302 300 297 295 291 287 282 275 274 274 280
115 104 92 78 64 47 38 24 16 9 6 9 7 6 6 2 351 348 343 337 330 324 319 315 314 313 309 306 304 299 292 298 302 301 300 300 299 295 287 279 278 266 268
115 100 80 66 48 34 26 20 14 12 9 6 4 1 2 358 356 352 345 342 333 326 318 314 312 311 309 308 307 301 298 297 291 291 295 299 300 303 302 293 291 278 275
96 78 69 71 52 37 25 17 15 14 9 1 2 359 355 352 354 349 343 338 332 325 317 314 312 312 310 307 308 304 302 291 283 284 291 295 295 297 298 295 294 289 278
117 113 87 67 53 38 32 18 21 11 3 359 3 359 350 348 345 348 341 337 333 327 320 315 313 311 309 306 306 304 298 289 279 284 293 294 296 297 297 296 294 285 274
130 114 94 71 45 36 27 29 8 3 356 353 357 353 344 336 340 335 331 329 326 320 315 309 310 313 312 313 312 307 308 306 299 296 295 299 300 299 296 304 298 284 264
137 132 111 82 46 28 13 5 20 359 359 3 358 351 345 338 335 337 334 334 331 334 332 324 318 322 321 323 312 306 310 309 312 306 301 298 296 296 298 305 299 288 276
143 140 100 85 60 18 9 1 358 10 13 11 2 359 358 346 347 342 342 341 348 355 5 353 346 341 335 331 332 325 325 319 319 307 302 298 302 303 304 299 296 287 278
141 129 140 132 80 37 11 16 10 357 348 351 6 0 356 355 353 354 352 351 5 7 2 350 343 338 335 335 336 333 335 323 314 309 307 307 309 312 306 293 288 274 272
151 152 139 125 88 47 44 21 9 4 354 346 348 356 5 355 353 360 5 10 1 357 354 349 349 345 340 338 338 338 338 335 340 315 313 315 315 312 305 296 287 277 266
157 157 154 129 108 62 40 30 15 8 348 340 338 342 356 344 356 359 0 360 358 355 353 348 349 349 345 343 342 341 342 345 347 343 343 328 322 317 305 300 291 274 263
168 184 160 134 107 19 4 356 3 345 335 329 326 339 344 336 342 343 344 350 353 353 350 347 348 351 350 350 351 349 342 343 348 347 346 340 340 321 316 308 298 283 271
174 175 153 99 46 344 313 326 337 326 317 315 325 332 328 325 331 338 339 342 344 346 346 342 342 346 350 351 351 348 348 344 346 349 345 345 345 342 332 318 304 287 271
177 165 142 81 303 297 302 306 310 313 311 313 315 314 319 321 321 326 329 331 333 335 338 339 337 339 343 345 349 349 346 347 342 349 348 347 346 345 344 343 330 288 267
184 176 201 245 274 289 302 308 306 304 303 306 310 311 309 312 314 320 323 325 327 329 333 336 333 332 332 334 338 341 343 345 350 344 350 354 350 351 348 347 343 338 302
200 209 234 269 286 289 293 293 295 303 303 300 300 303 306 311 312 317 321 322 323 324 327 330 332 333 333 333 334 333 335 340 350 342 345 354 357 357 357 355 350 343 332
218 241 267 276 279 283 286 289 293 295 293 294 298 301 306 309 312 314 316 318 318 318 320 322 324 327 327 329 332 334 339 339 342 339 339 347 353 356 358 359 358 355 348